Knoxville, TN

3:08 PM EST on November 21, 2019 (GMT -0500)
McGhee Tyson

Weather History for KTYS - July, 2019

Change the Weather History Date:

Thursday, July 11, 2019

  Actual Average Record
Temperature  
Mean Temperature 80 °F 78 °F  
Max Temperature 87 °F 88 °F 99 °F (1881)
Min Temperature 73 °F 69 °F 54 °F (1963)
Degree Days  
Heating Degree Days 0 0  
Month to date heating degree days 0 0  
Since 1 June heating degree days 0 4  
Since 1 July heating degree days 0 0  
Cooling Degree Days 15 14  
Month to date cooling degree days 180 144  
Year to date cooling degree days 759 611  
Since 1 June cooling degree days 459 449  
Growing Degree Days 30 (Base 50)    
Moisture  
Dew Point 71 °F    
Average Humidity 76    
Maximum Humidity 93    
Minimum Humidity 59    
Precipitation  
Precipitation 0.61 in 0.16 in 2.44 in (2000)
Month to date precipitation 1.16 1.83  
Year to date precipitation 40.38 27.08  
Snow  
Snow 0.00 in 0.00 in - ()
Month to date snowfall 0.0 0.0  
Since 1 June snowfall 0.0 0.0  
Since 1 July snowfall 0.0 0.0  
Snow Depth 0.00 in    
Sea Level Pressure  
Sea Level Pressure 29.92 in    
Wind  
Wind Speed 6 mph (SSW)    
Max Wind Speed 25 mph    
Max Gust Speed 34 mph    
Visibility 9 miles    
Events Rain , Thunderstorm    
T = Trace of Precipitation, MM = Missing Value Source: NWS Daily Summary

Daily Weather History Graph

Daily Weather History Graph

Search for Another Location

Airport or City:

Astronomy

Jul. 11, 2019 Rise Set
Actual Time 6:28 AM EDT 8:54 PM EDT
Civil Twilight 5:58 AM EDT 9:23 PM EDT
Nautical Twilight 5:22 AM EDT 10:00 PM EDT
Astronomical Twilight 4:42 AM EDT 10:40 PM EDT
Moon 4:11 PM EDT (7/11) 2:31 AM EDT (7/11)
Length of Visible Light 15h 24m
Length of Day
14h 25m
Waxing Gibbous, 74% of the Moon is Illuminated
Jul 11
Waxing Gibbous
Jul 16
Full
Jul 24
Last Quarter
Jul 31
New
Aug 7
First Quarter

Hourly Weather History & Observations

Time (EDT) Temp. Heat Index Dew Point Humidity Pressure Visibility Wind Dir Wind Speed Gust Speed Precip Events Conditions
12:53 AM 79.0 °F - 73.0 °F 82% 29.94 in 10.0 mi Calm Calm - N/A   Scattered Clouds
1:53 AM 77.0 °F - 72.0 °F 84% 29.93 in 10.0 mi Calm Calm - N/A   Scattered Clouds
2:53 AM 79.0 °F - 73.0 °F 82% 29.93 in 10.0 mi West 3.5 mph - N/A   Scattered Clouds
3:53 AM 77.0 °F - 71.1 °F 82% 29.91 in 10.0 mi SW 3.5 mph - N/A   Mostly Cloudy
4:53 AM 75.9 °F - 71.1 °F 85% 29.91 in 10.0 mi SE 3.5 mph - N/A   Scattered Clouds
5:53 AM 75.9 °F - 72.0 °F 87% 29.91 in 10.0 mi Calm Calm - N/A   Scattered Clouds
6:53 AM 75.0 °F - 71.1 °F 87% 29.92 in 10.0 mi SW 3.5 mph - N/A   Mostly Cloudy
7:53 AM 77.0 °F - 71.1 °F 82% 29.94 in 10.0 mi Calm Calm - N/A   Mostly Cloudy
8:53 AM 78.1 °F - 71.1 °F 79% 29.94 in 10.0 mi WNW 3.5 mph - N/A   Overcast
9:53 AM 82.0 °F 86.7 °F 72.0 °F 71% 29.95 in 10.0 mi SSW 13.8 mph - N/A   Overcast
10:53 AM 84.0 °F 89.0 °F 71.1 °F 65% 29.93 in 10.0 mi SSW 13.8 mph - N/A   Overcast
11:53 AM 84.9 °F 90.1 °F 71.1 °F 63% 29.93 in 10.0 mi SW 11.5 mph - N/A   Mostly Cloudy
12:53 PM 87.1 °F 92.8 °F 71.1 °F 59% 29.92 in 10.0 mi SW 16.1 mph 23.0 mph N/A   Mostly Cloudy
1:10 PM 86.0 °F 92.2 °F 72.0 °F 63% 29.95 in 10.0 mi SSW 15.0 mph - N/A Thunderstorm Thunderstorm
1:34 PM 84.9 °F 89.4 °F 70.0 °F 61% 29.95 in 10.0 mi WSW 18.4 mph - 0.00 in Thunderstorm Mostly Cloudy
1:37 PM 84.9 °F 88.8 °F 69.1 °F 59% 29.95 in 10.0 mi WSW 13.8 mph - 0.00 in Thunderstorm Mostly Cloudy
1:53 PM 84.0 °F 88.4 °F 70.0 °F 63% 29.92 in 10.0 mi WSW 12.7 mph - N/A Thunderstorm Mostly Cloudy
2:08 PM 82.9 °F 87.5 °F 71.1 °F 67% 29.96 in 10.0 mi West 5.8 mph - N/A   Mostly Cloudy
2:18 PM 82.0 °F 86.3 °F 71.1 °F 69% 29.96 in 9.0 mi Calm Calm - 0.00 in Rain , Thunderstorm Light Rain
2:37 PM 75.9 °F - 71.1 °F 85% 29.95 in 9.0 mi ENE 12.7 mph - 0.01 in Rain Light Rain
2:46 PM 75.0 °F - 71.1 °F 87% 29.95 in 10.0 mi NNE 10.4 mph - 0.01 in Rain Light Rain
2:53 PM 75.0 °F - 72.0 °F 90% 29.92 in 10.0 mi NE 11.5 mph - 0.01 in Rain Light Rain
3:10 PM 75.0 °F - 71.1 °F 87% 29.96 in 10.0 mi ENE 9.2 mph - 0.00 in Rain , Thunderstorm Light Rain
3:23 PM 77.0 °F - 72.0 °F 84% 29.96 in 10.0 mi East 9.2 mph - 0.00 in Thunderstorm Overcast
3:34 PM 75.9 °F - 72.0 °F 87% 29.95 in 10.0 mi East 8.1 mph - 0.00 in   Overcast
3:53 PM 79.0 °F - 72.0 °F 79% 29.90 in 10.0 mi East 11.5 mph - 0.00 in   Mostly Cloudy
4:53 PM 82.0 °F 86.3 °F 71.1 °F 69% 29.86 in 10.0 mi Variable 6.9 mph - N/A   Mostly Cloudy
5:53 PM 82.0 °F 86.3 °F 71.1 °F 69% 29.84 in 10.0 mi Calm Calm - N/A   Mostly Cloudy
6:53 PM 80.1 °F 83.6 °F 71.1 °F 74% 29.86 in 10.0 mi North 9.2 mph - N/A   Overcast
7:10 PM 80.1 °F 83.6 °F 71.1 °F 74% 29.89 in 10.0 mi Variable 5.8 mph - 0.00 in Rain , Thunderstorm Light Thunderstorms and Rain
7:17 PM 80.1 °F 83.6 °F 71.1 °F 74% 29.93 in 1.0 mi West 10.4 mph 18.4 mph 0.00 in Rain , Thunderstorm Heavy Thunderstorms and Rain
7:18 PM 80.1 °F 83.6 °F 71.1 °F 74% 29.93 in 0.5 mi West 20.7 mph 34.5 mph 0.00 in Rain , Thunderstorm Heavy Thunderstorms and Rain
7:24 PM 75.0 °F - 68.0 °F 79% 29.91 in 1.2 mi South 13.8 mph 34.5 mph 0.21 in Rain , Thunderstorm Thunderstorms and Rain
7:26 PM 75.0 °F - 68.0 °F 79% 29.91 in 2.0 mi South 11.5 mph 34.5 mph 0.39 in Rain , Thunderstorm Thunderstorms and Rain
7:30 PM 75.9 °F - 68.0 °F 76% 29.91 in 5.0 mi Variable 4.6 mph 21.9 mph 0.56 in Rain , Thunderstorm Light Thunderstorms and Rain
7:36 PM 75.9 °F - 68.0 °F 76% 29.91 in 7.0 mi ESE 3.5 mph - 0.57 in Thunderstorm Thunderstorm
7:47 PM 75.2 °F - 69.8 °F 83% 29.91 in 10.0 mi ESE 4.6 mph - 0.57 in Thunderstorm Mostly Cloudy
7:53 PM 75.0 °F - 69.1 °F 82% 29.87 in 10.0 mi East 8.1 mph - 0.57 in Thunderstorm Mostly Cloudy
8:22 PM 73.9 °F - 70.0 °F 87% 29.91 in 10.0 mi NE 4.6 mph - N/A   Mostly Cloudy
8:53 PM 73.9 °F - 71.1 °F 91% 29.89 in 10.0 mi Calm Calm - N/A   Overcast
9:53 PM 73.9 °F - 70.0 °F 87% 29.89 in 10.0 mi Calm Calm - 0.00 in Rain Light Rain
10:53 PM 73.9 °F - 71.1 °F 91% 29.84 in 10.0 mi SSW 5.8 mph - 0.00 in   Mostly Cloudy
11:53 PM 73.9 °F - 71.1 °F 91% 29.89 in 10.0 mi North 8.1 mph - N/A   Overcast